Regional Weather Roundup
Issued by NWS

Home | Current Version | Previous Version | Text Only | Print | Product List | Glossary On
Versions: 1 2 3 4 5 6 7 8 9 10 11 12 13 14 15 16 17 18 19 20 21 22 23 24 25 26 27 28 29 30 31 32 33 34 35 36 37 38 39 40 41 42 43 44 45 46 47 48 49 50
000
ASUS43 KMPX 212210
RWRMN
WEATHER ROUNDUP FOR MINNESOTA
NATIONAL WEATHER SERVICE TWIN CITIES/CHANHASSEN MN
500 PM CDT MON JUL 21 2014


NOTE: "FAIR" INDICATES FEW OR NO CLOUDS BELOW 12,000 FEET WITH NO
SIGNIFICANT WEATHER AND/OR OBSTRUCTIONS TO VISIBILITY. N/A MEANS
CURRENT SKY AND/OR WEATHER CONDITIONS ARE NOT AVAILABLE.

MNZ060>063-068>070-212300-
   Twin Cities Metro

CITY           SKY/WX    TMP DP  RH WIND       PRES   REMARKS
TWIN CITIES    PTSUNNY   91  75  59 S16G23    29.86S HX 101
ST PAUL        MOSUNNY   86  75  69 SE8       29.86S HX  95
CRYSTAL        PTSUNNY   89  74  60 SE13      29.85R HX  98
BLAINE         PTSUNNY   90  75  62 SE15        N/A  HX 100
LAKEVILLE      MOSUNNY   88  75  66 SE10G18   29.87R HX  97
EDEN PRAIRIE   PTSUNNY   88  76  67 S13       29.86R HX  99
SOUTH ST PAUL  SUNNY     89  74  60 SE9G16    29.86S HX  97
LAKE ELMO      PTSUNNY   86  75  70 SE9       29.89S HX  95
$$
MNZ001>005-007-008-013>017-022>024-027-028-212300-
   Northwest Minnesota

CITY           SKY/WX    TMP DP  RH WIND       PRES   REMARKS
BEMIDJI        PTSUNNY   88  74  62 S7        29.82F HX  97
HALLOCK        MOSUNNY   84  64  51 NE10      29.76F
ROSEAU         SUNNY     82  68  61 NE12      29.81F
WARROAD        MOSUNNY   82  64  54 NE9       29.83F
THIEF RVR FALL MOSUNNY   88  73  62 SE12      29.77F HX  96
CROOKSTON      PTSUNNY   90  75  62 SE9       29.74F HX 100
FOSSTON        SUNNY     90  73  58 SE6       29.79F HX  98
DETROIT LAKES  PTSUNNY   88  73  62 S16       29.80F HX  96
MOORHEAD       CLOUDY    90  79  70 S15G21    29.73F HX 105
PARK RAPIDS    PTSUNNY   89  75  63 S14       29.82F HX  99
$$
MNZ006-009>011-018-025>026-212300-
   North Central Minnesota

CITY           SKY/WX    TMP DP  RH WIND       PRES   REMARKS
BAUDETTE       SUNNY     89  70  53 VRB5      29.81F HX  94
FLAG ISLAND    PTSUNNY   81  63  54 N5        29.83S
INTL FALLS     MOSUNNY   89  72  56 SW7       29.83S HX  96
WASKISH        SUNNY     88  73  62 CALM      29.82F HX  96
BIG FORK       SUNNY    N/A N/A N/A SE6       29.85S
LONGVILLE      MOSUNNY   88  75  66 S8        29.84F HX  97
GRAND RAPIDS   SUNNY     88  72  58 S13       29.85F HX  94
CRANE LAKE     MOSUNNY   88  72  58 S5        29.85F HX  94
ORR            MOSUNNY   90  68  48 S10       29.82F HX  93
COOK           SUNNY     90  70  51 S8        29.86F HX  95
$$
MNZ012-019>021-037-212300-
   Northeast Minnesota

CITY           SKY/WX    TMP DP  RH WIND       PRES   REMARKS
DULUTH         MOSUNNY   86  71  60 S13       29.89S HX  91
ELY            SUNNY     90  68  48 SW8       29.87F HX  93
HIBBING        SUNNY     89  71  55 S10       29.86F HX  95
EVELETH        SUNNY     88  70  55 S8        29.88F HX  92
DULUTH HARBOR  MOSUNNY   90  75  62 S10       29.85S HX 100
TWO HARBORS    SUNNY     88  72  58 S8        29.86F HX  94
SILVER BAY     SUNNY     86  73  66 S9        29.87F HX  93
GRAND MARAIS     N/A     69  63  81 SW3       29.87F
G MARAIS ARPRT SUNNY     82  66  57 S8G16     29.95S
$$
MNZ029>031-032-039>041-046>048-054>057-064-212300-
   West Central Minnesota

CITY           SKY/WX    TMP DP  RH WIND       PRES   REMARKS
FERGUS FALLS   CLOUDY    86  72  62 SE8G17    29.74F HX  92
WHEATON        CLOUDY    82  75  78 SE20G29   29.74S
MORRIS         CLOUDY    84  77  79 SE10      29.77F HX  94
ALEXANDRIA     PTSUNNY   87  74  64 S18G24    29.86R HX  95
ELBOW LAKE     FAIR      83  75  76 SE23G29   29.74F HX  91
WADENA         MOSUNNY   86  73  66 S13       29.83R HX  93
GLENWOOD       CLOUDY    84  75  74 S12       29.86S HX  92
APPLETON       CLOUDY    88  75  66 SE12G17   29.78F HX  97
BENSON         CLOUDY    84  75  74 S12       29.81F HX  92
MADISON        CLOUDY    88  77  70 S9        29.79F HX 100
WILLMAR        FAIR      88  73  62 CALM      29.85R HX  96
$$
MNZ033>034-036-042>043-049>051-058-059-212300-
   Central Minnesota

CITY           SKY/WX    TMP DP  RH WIND       PRES   REMARKS
ST CLOUD       MOSUNNY   93  75  55 SE16G22   29.84R HX 104
SAUK CENTRE    MOCLDY    87  75  66 S15       29.85R HX  96
PAYNESVILLE    CLOUDY    84  74  70 E8        29.85S HX  91
AITKIN         MOSUNNY   90  77  66 S10       29.84F HX 102
PINE RIVER     MOSUNNY   88  75  66 S13       29.87F HX  97
BRAINERD       PTSUNNY   87  74  64 S10       29.85S HX  95
STAPLES        MOSUNNY   88  73  62 S10       29.84S HX  96
LONG PRAIRIE   PTSUNNY   86  73  66 SE13G18   29.85S HX  93
LITTLE FALLS   MOSUNNY   88  72  58 SE14      29.84F HX  94
LITCHFIELD     MOSUNNY   90  79  70 SE8       29.84F HX 105
BUFFALO        CLOUDY    88  74  61 SE9       29.87R HX  96
MAPLE LAKE     CLOUDY    88  77  69 SE8       29.87R HX 100
$$
MNZ037-044-045-052-053-212300-
   East Central Minnesota

CITY           SKY/WX    TMP DP  RH WIND       PRES   REMARKS
PRINCETON      SUNNY     91  75  59 S16       29.85S HX 102
CAMBRIDGE      SUNNY     91  75  59 SE13      29.84F HX 102
RUSH CITY      MOSUNNY   87  74  64 S7        29.87S HX  95
MOOSE LAKE     PTSUNNY   88  73  62 S7        29.85F HX  96
HINCKLEY       FAIR      88  75  66 S12       29.86F HX  97
CLOQUET        PTSUNNY   88  72  58 SE8       29.88F HX  94
MCGREGOR       MOSUNNY   88  73  62 S9G17     29.86F HX  96
$$
MNZ071>073-080-081-089-090-097-098-212300-
   Southwest Minnesota

CITY           SKY/WX    TMP DP  RH WIND       PRES   REMARKS
MONTEVIDEO     CLOUDY    88  77  70 S9        29.82F HX 100
GRANITE FALLS  CLOUDY    85  75  71 SE10      29.84R HX  94
CANBY          PTSUNNY   87  75  67 SE13      29.80F HX  96
MARSHALL       PTSUNNY   84  73  70 S14       29.82F HX  91
REDWOOD FALLS  PTSUNNY   87  75  67 S15       29.84R HX  96
OLIVIA         PTSUNNY   88  73  62 S14       29.84R HX  96
PIPESTONE      CLOUDY    82  73  74 S10       29.84F
WINDOM         PTSUNNY   84  73  70 SE13G20   29.86S HX  91
WORTHINGTON    PTSUNNY   82  73  74 S15G21    29.88S
JACKSON        PTSUNNY   82  72  69 S12       29.87F
TRACY          CLOUDY    84  75  73 S10       29.86R HX  92
SLAYTON        CLOUDY    83  74  74 S13       29.86S
$$
MNZ065>067-074>077-082>085-091>093-212300-
   South Central Minnesota

CITY           SKY/WX    TMP DP  RH WIND       PRES   REMARKS
MANKATO        CLOUDY    86  73  66 S10G16    29.88R HX  93
NEW ULM        SUNNY     84  75  74 S15       29.85F HX  92
ST JAMES       MOSUNNY   84  72  65 SE12      29.87F
FAIRMONT       CLOUDY    84  72  65 S14G20    29.88S
GLENCOE        MOSUNNY   90  73  57 S8        29.85S HX  98
FARIBAULT      PTSUNNY   91  70  49 S14       29.89R HX  97
OWATONNA       MOSUNNY   88  73  62 S17G23    29.90R HX  96
WASECA         CLOUDY    82  68  61 S10       29.91R
ALBERT LEA     MOSUNNY   86  73  66 S13G20    29.90R HX  93
$$
MNZ078>079-086>088-094>096-212300-
   Southeast Minnesota

CITY           SKY/WX    TMP DP  RH WIND       PRES   REMARKS
ROCHESTER      SUNNY     85  73  67 SE18G28   29.91F HX  91
RED WING       SUNNY     90  73  58 SE12      29.87F HX  98
STANTON        MOSUNNY   89  74  62 S10G17    29.86S HX  98
DODGE CENTER   SUNNY     88  73  62 S20G25    29.91R HX  96
WINONA         MOSUNNY   90  72  55 S7        29.92F HX  96
AUSTIN         MOSUNNY   86  72  62 S13       29.90R HX  92
PRESTON        SUNNY     85  76  74 S14G21    29.94S HX  95
$$
ABBREVIATIONS USED IN REMARKS
   TC - TEMPERATURES IN CELSIUS
  WCI - WIND CHILL INDEX
   HX - HEAT INDEX
  VSB - VISIBILITY
$$



USA.gov is the U.S. government's official web portal to all federal, state and local government web resources and services.